Temp
5 5 5 6 6 6 6 6 6 6 6 7 7 7 6 6 6 6 5 5 4 4 4 4 4 4 4 4 4 4 3 3 3 3 3 3 3 2 2 1 1 2 2 1
5 5 5 6 6 6 6 6 6 7 7 7 7 7 7 6 6 6 5 5 5 5 5 5 5 5 5 4 4 4 3 3 3 3 3 2 2 2 2 2 2 2 1 1
5 5 5 6 6 6 6 6 7 7 7 7 7 7 7 7 6 6 6 5 5 5 6 6 6 5 5 5 5 4 4 3 3 3 3 3 3 2 2 2 1 1 1 1
5 5 5 5 5 6 6 6 7 7 7 7 7 7 7 8 7 7 7 6 6 5 5 5 5 6 6 5 5 4 4 4 3 3 3 3 2 2 2 1 1 1 1 1
6 6 6 6 6 6 6 6 6 6 6 7 7 6 8 7 8 8 7 7 6 6 6 6 6 6 5 5 5 4 4 3 3 2 2 2 2 2 2 1 1 1 1 1
5 5 5 6 6 6 6 6 6 6 6 6 6 6 7 7 8 8 8 8 7 7 6 6 6 5 5 5 4 4 4 3 3 3 2 2 2 2 1 1 1 1 1 1
5 5 5 5 5 5 6 6 6 6 5 6 5 5 7 7 7 7 7 8 7 7 7 7 6 6 6 5 5 4 4 2 3 3 2 2 2 2 2 2 2 1 1 1
5 5 5 5 5 6 6 6 6 5 4 6 5 5 7 7 7 7 8 8 8 7 7 7 7 6 6 6 5 5 4 3 2 2 2 2 2 2 2 2 2 1 0 0
5 5 6 5 6 6 6 6 6 6 3 3 5 6 7 7 7 7 8 8 8 8 8 7 8 7 6 6 5 5 4 3 3 2 2 2 2 2 2 2 1 0 0 -0
5 5 5 5 5 5 6 6 5 5 4 4 4 5 7 7 7 7 7 7 7 7 7 7 7 7 6 6 5 4 4 3 2 2 2 2 2 2 2 1 0 -0 -1 -1
5 5 5 5 5 6 6 5 5 6 5 5 4 6 7 7 7 7 7 7 7 7 7 7 6 6 6 6 5 4 4 3 3 3 2 2 2 2 1 0 -0 -1 -1 -2
5 5 5 6 6 6 6 5 6 5 4 4 3 5 6 7 7 7 7 7 7 7 7 7 6 6 6 6 6 5 4 4 2 2 2 2 1 1 1 -0 -1 -1 -2 -3
5 5 5 5 5 5 5 5 6 5 5 5 4 5 6 6 6 6 6 6 6 6 6 6 6 6 6 6 5 5 4 3 2 2 1 1 1 1 0 -0 -1 -2 -3 -4
5 5 5 5 6 6 6 6 6 5 5 5 5 6 6 6 6 6 6 6 6 6 6 6 6 6 5 5 4 4 3 3 2 2 2 1 1 0 -0 -1 -1 -2 -3 -3
5 5 5 6 6 6 6 6 6 5 6 5 6 6 6 6 6 6 6 6 6 6 6 6 6 6 5 5 4 4 4 3 3 2 2 2 1 -0 -0 -1 -2 -2 -2 -3
5 5 5 6 5 5 5 6 6 6 6 6 6 6 6 6 5 5 6 6 6 6 6 6 6 5 5 5 5 4 4 3 3 3 2 2 1 0 -0 -1 -2 -2 -2 -3
5 5 5 5 5 5 5 6 6 6 6 6 5 5 5 5 5 5 5 5 6 6 6 6 5 5 4 4 4 3 3 3 2 2 1 1 0 -0 -1 -2 -3 -3 -3 -3
4 5 5 5 4 2 5 6 6 6 6 5 5 5 4 4 4 4 5 5 5 5 5 5 4 4 3 3 3 3 2 2 1 0 0 -0 -1 -1 -1 -2 -3 -3 -4 -3
4 5 4 4 4 5 5 5 6 5 5 5 5 5 4 4 4 4 4 4 4 4 4 3 3 3 3 3 2 1 1 0 -0 -1 -1 -1 -2 -2 -3 -3 -4 -4 -5 -6
4 5 4 4 4 2 5 5 5 5 4 5 4 4 4 4 4 4 3 3 3 3 3 3 3 2 2 1 1 0 -1 -1 -1 -1 -2 -2 -2 -3 -4 -4 -5 -5 -6 -7
4 4 4 4 4 5 5 5 5 4 5 5 5 5 4 4 3 3 3 3 3 2 2 2 2 1 0 0 -0 -1 -1 -1 -2 -2 -2 -3 -3 -4 -5 -6 -6 -7 -7 -8
5 4 3 4 3 3 5 5 5 5 4 4 4 4 4 3 3 3 3 2 2 2 1 1 0 0 -0 -1 -1 -2 -2 -2 -3 -3 -3 -4 -5 -5 -6 -7 -7 -8 -8 -8
4 5 5 5 5 5 5 5 5 4 4 3 3 4 3 3 3 2 2 2 1 1 1 0 -0 -1 -1 -2 -2 -2 -3 -3 -4 -4 -5 -5 -6 -7 -7 -8 -8 -8 -8 -9
4 5 5 5 5 5 5 5 4 4 4 3 3 3 3 2 2 2 1 1 1 0 0 -0 -1 -2 -2 -3 -3 -4 -5 -5 -5 -6 -6 -7 -7 -7 -8 -8 -8 -9 -9 -10
4 5 5 5 5 5 5 5 5 4 4 3 3 3 2 2 1 1 1 1 0 -0 -1 -1 -2 -2 -3 -4 -5 -5 -5 -6 -6 -7 -7 -8 -8 -8 -9 -9 -10 -10 -10 -10
3 4 5 5 5 5 5 4 4 4 3 3 2 2 2 1 1 1 0 0 -0 -1 -1 -2 -2 -4 -5 -5 -5 -6 -6 -7 -7 -8 -8 -8 -9 -9 -9 -10 -10 -10 -11 -11
Height
3122 3122 3122 3123 3126 3126 3127 3127 3128 3128 3128 3127 3127 3127 3128 3129 3130 3130 3129 3132 3133 3134 3135 3136 3138 3139 3142 3144 3145 3148 3150 3152 3154 3157 3159 3162 3163 3164 3165 3166 3166 3168 3167 3166
3121 3119 3119 3122 3124 3125 3125 3126 3127 3126 3126 3125 3124 3124 3126 3127 3129 3130 3132 3133 3134 3134 3135 3137 3138 3140 3141 3144 3145 3147 3149 3152 3154 3156 3158 3158 3159 3160 3161 3163 3163 3163 3162 3163
3118 3119 3119 3121 3123 3123 3123 3125 3124 3124 3123 3122 3122 3122 3123 3124 3126 3129 3130 3132 3134 3134 3135 3136 3138 3140 3142 3143 3144 3146 3148 3150 3151 3153 3154 3155 3157 3158 3158 3158 3159 3159 3159 3159
3117 3117 3118 3119 3120 3123 3121 3122 3122 3121 3122 3121 3121 3122 3121 3122 3124 3125 3128 3129 3131 3132 3134 3135 3137 3138 3139 3141 3142 3145 3147 3148 3150 3150 3151 3153 3154 3154 3155 3155 3154 3155 3154 3153
3114 3114 3115 3116 3118 3121 3122 3121 3121 3120 3120 3121 3121 3123 3121 3121 3122 3122 3124 3126 3128 3129 3131 3133 3134 3136 3138 3138 3140 3142 3144 3145 3145 3146 3146 3148 3150 3149 3150 3148 3148 3148 3148 3148
3110 3111 3112 3113 3114 3117 3119 3119 3119 3118 3119 3120 3119 3121 3118 3119 3119 3119 3119 3121 3123 3126 3127 3129 3131 3132 3133 3135 3137 3138 3139 3140 3140 3140 3142 3142 3143 3143 3142 3142 3142 3142 3142 3143
3106 3108 3109 3111 3112 3113 3117 3118 3117 3118 3118 3116 3117 3118 3116 3116 3115 3114 3114 3115 3117 3120 3122 3124 3126 3127 3128 3130 3132 3133 3135 3135 3133 3134 3137 3137 3136 3136 3135 3136 3137 3137 3137 3138
3102 3105 3105 3106 3109 3111 3112 3115 3114 3116 3116 3114 3114 3113 3113 3113 3112 3110 3108 3110 3111 3112 3113 3116 3119 3122 3124 3126 3127 3129 3129 3128 3127 3128 3132 3131 3131 3131 3131 3130 3132 3132 3132 3131
3099 3101 3101 3102 3105 3108 3109 3111 3112 3111 3112 3113 3110 3109 3109 3109 3109 3107 3105 3106 3107 3107 3108 3110 3113 3115 3118 3120 3123 3125 3125 3123 3124 3126 3126 3126 3125 3125 3125 3124 3125 3125 3124 3123
3097 3098 3098 3100 3102 3104 3106 3108 3110 3109 3111 3111 3107 3106 3106 3106 3107 3106 3105 3105 3105 3104 3105 3106 3108 3110 3112 3115 3117 3119 3121 3122 3122 3121 3121 3120 3119 3120 3119 3118 3119 3118 3117 3116
3093 3096 3098 3098 3099 3101 3103 3103 3106 3107 3107 3106 3105 3103 3103 3103 3104 3104 3104 3104 3103 3102 3102 3103 3104 3105 3107 3109 3111 3113 3114 3116 3117 3117 3116 3116 3115 3115 3113 3113 3112 3111 3109 3108
3089 3091 3092 3094 3095 3097 3097 3099 3101 3102 3103 3101 3101 3099 3100 3100 3100 3101 3101 3101 3101 3101 3100 3100 3101 3102 3104 3105 3106 3108 3110 3111 3112 3112 3111 3111 3110 3109 3108 3107 3105 3103 3102 3100
3084 3086 3088 3090 3092 3091 3092 3094 3096 3096 3096 3096 3098 3097 3095 3097 3098 3097 3097 3097 3097 3098 3098 3098 3099 3100 3102 3103 3104 3105 3106 3106 3108 3107 3106 3105 3104 3102 3101 3100 3097 3095 3093 3091
3079 3080 3081 3082 3084 3088 3088 3089 3090 3091 3091 3091 3089 3090 3092 3093 3093 3093 3093 3093 3093 3093 3094 3095 3096 3097 3098 3100 3101 3102 3103 3102 3100 3100 3100 3098 3096 3095 3093 3092 3090 3088 3085 3083
3073 3074 3076 3078 3080 3081 3083 3084 3084 3085 3086 3085 3086 3085 3087 3088 3089 3088 3087 3087 3088 3088 3089 3090 3091 3092 3093 3094 3095 3095 3094 3094 3094 3093 3091 3090 3089 3088 3087 3084 3082 3079 3078 3075
3066 3068 3071 3072 3073 3075 3076 3077 3078 3080 3080 3079 3080 3078 3083 3083 3083 3083 3083 3083 3083 3084 3084 3085 3086 3087 3088 3088 3089 3089 3088 3088 3087 3086 3084 3083 3081 3078 3076 3074 3073 3071 3069 3064
3060 3062 3065 3067 3068 3069 3068 3070 3072 3074 3074 3075 3073 3074 3075 3075 3076 3077 3077 3077 3078 3078 3078 3079 3080 3081 3082 3082 3083 3083 3082 3081 3079 3078 3076 3075 3073 3070 3068 3067 3066 3064 3060 3055
3053 3057 3059 3061 3062 3064 3061 3064 3067 3068 3068 3068 3066 3066 3066 3066 3067 3068 3070 3071 3071 3072 3072 3073 3075 3076 3076 3077 3077 3076 3075 3074 3072 3070 3068 3066 3064 3062 3060 3058 3057 3055 3052 3048
3048 3051 3054 3055 3056 3055 3054 3057 3061 3063 3059 3062 3059 3060 3058 3057 3059 3060 3062 3063 3065 3067 3068 3069 3070 3071 3071 3070 3069 3068 3067 3065 3064 3062 3060 3058 3056 3054 3051 3050 3047 3045 3043 3039
3041 3045 3049 3049 3050 3048 3048 3053 3056 3057 3048 3052 3053 3053 3053 3052 3052 3055 3057 3059 3061 3063 3063 3064 3065 3065 3064 3063 3062 3061 3059 3058 3056 3054 3051 3048 3046 3044 3042 3040 3038 3036 3033 3029
3034 3038 3039 3042 3043 3041 3043 3047 3049 3051 3046 3046 3047 3047 3047 3048 3051 3053 3054 3056 3057 3058 3058 3058 3058 3058 3057 3056 3055 3054 3052 3050 3047 3045 3042 3040 3037 3035 3032 3030 3029 3026 3024 3021
3028 3032 3033 3035 3037 3037 3038 3040 3042 3041 3039 3040 3041 3041 3043 3044 3047 3049 3050 3051 3052 3052 3052 3052 3052 3051 3050 3050 3048 3046 3043 3041 3039 3036 3034 3031 3028 3027 3025 3023 3022 3020 3018 3015
3022 3024 3026 3029 3028 3032 3032 3034 3033 3033 3034 3033 3035 3036 3038 3041 3043 3044 3046 3047 3047 3046 3046 3046 3045 3044 3043 3041 3039 3037 3035 3033 3031 3029 3027 3025 3023 3021 3019 3017 3015 3013 3009 3005
3016 3019 3020 3023 3025 3025 3026 3027 3028 3027 3028 3028 3030 3032 3034 3036 3037 3039 3040 3040 3041 3041 3040 3040 3039 3037 3035 3034 3031 3029 3027 3025 3024 3022 3021 3019 3017 3015 3013 3010 3007 3005 3001 2997
3011 3013 3014 3014 3018 3019 3020 3020 3021 3021 3022 3022 3024 3027 3029 3031 3033 3033 3034 3034 3034 3034 3033 3032 3031 3030 3028 3026 3024 3023 3021 3019 3017 3016 3014 3013 3011 3009 3006 3003 3000 2997 2992 2987
3003 3005 3007 3007 3012 3013 3014 3015 3014 3015 3016 3018 3019 3021 3023 3025 3027 3028 3028 3028 3028 3027 3026 3025 3024 3023 3021 3020 3018 3016 3014 3012 3011 3010 3008 3007 3005 3002 2999 2996 2993 2989 2984 2979
Wind_Speed
8 8 10 10 7 4 3 2 1 2 7 11 12 12 11 5 5 7 10 13 13 15 17 18 19 19 19 18 18 17 16 14 13 12 12 11 11 11 10 9 10 10 9 9
5 3 7 11 9 8 5 4 5 4 5 13 13 10 11 13 6 3 10 12 14 15 14 16 18 17 16 16 16 16 16 14 13 10 10 10 11 11 11 12 12 13 12 12
6 6 8 8 10 10 8 6 8 9 6 7 9 7 7 9 10 9 9 14 17 12 14 14 13 13 14 13 12 13 14 14 12 12 12 11 12 12 13 12 12 14 17 16
9 10 8 7 11 12 10 5 5 4 3 2 1 2 3 6 7 12 13 15 17 15 13 14 15 14 11 12 14 14 13 14 15 14 14 13 12 14 15 19 19 18 19 19
9 9 8 9 11 12 13 8 5 3 4 4 4 3 4 3 6 9 14 16 18 19 18 17 15 15 14 15 13 14 15 17 19 20 18 16 16 16 18 23 22 20 22 23
13 7 7 8 13 10 12 12 7 5 6 3 7 7 6 6 7 9 10 16 18 21 20 18 18 18 19 20 20 19 17 19 21 21 19 19 19 17 19 22 25 25 24 25
18 15 11 11 8 11 12 9 2 1 2 2 5 5 8 8 13 15 14 15 16 22 24 23 23 22 22 21 22 22 22 27 17 22 21 19 20 22 23 25 27 27 25 27
18 8 15 13 15 11 13 11 6 3 3 2 4 5 5 15 13 14 11 15 12 17 20 22 21 22 23 20 22 22 22 28 17 13 17 17 20 23 26 25 23 22 23 24
14 11 8 12 15 13 10 11 9 4 1 2 3 7 11 4 7 6 4 10 12 13 16 18 18 16 18 19 18 16 17 25 24 15 17 19 20 22 23 19 20 20 19 20
17 8 11 14 16 15 10 6 4 4 2 2 3 5 9 8 7 1 6 4 2 5 8 10 13 14 15 17 15 18 16 17 18 20 18 15 15 15 15 15 16 17 21 22
27 16 10 12 15 12 11 14 9 5 7 3 2 5 6 9 12 4 5 7 6 6 4 9 13 14 17 17 19 19 18 15 13 11 12 14 14 16 16 18 21 22 22 24
28 15 20 21 17 16 16 16 14 10 7 9 6 12 19 6 10 9 10 8 9 7 5 4 9 11 9 7 10 13 14 12 11 13 15 18 20 22 23 22 21 20 25 26
32 25 16 12 16 18 20 21 18 17 15 13 7 10 6 9 9 14 12 11 13 12 8 3 4 4 7 9 10 9 13 17 17 20 23 24 25 24 24 24 22 26 31 31
35 30 23 23 25 18 17 22 22 19 15 19 24 25 16 14 12 14 16 16 14 15 13 11 10 9 11 11 12 17 20 22 22 23 26 28 27 26 25 27 29 29 29 30
29 27 26 28 28 26 25 21 17 25 21 21 20 22 19 18 15 15 16 18 15 14 12 16 15 17 17 18 19 22 22 21 24 28 31 32 32 31 32 31 28 28 29 31
33 28 26 27 25 26 24 27 24 20 21 25 26 30 25 25 21 17 15 12 15 16 17 18 21 21 21 22 22 24 25 25 28 30 32 34 34 34 33 30 30 33 37 36
31 32 27 22 23 21 24 28 25 24 26 29 33 34 26 23 22 22 22 19 19 20 21 22 23 22 21 21 22 22 25 28 30 32 33 32 32 32 33 32 33 37 40 42
26 29 29 19 19 8 24 23 23 27 30 32 34 31 27 28 28 26 26 27 21 21 20 19 18 19 18 19 22 25 27 29 29 28 26 26 27 29 31 33 33 34 41 43
24 27 22 15 22 24 20 20 24 25 34 29 25 19 22 24 23 22 22 19 16 14 14 15 16 18 20 23 26 26 24 23 24 25 26 27 30 31 33 31 33 37 36 33
26 24 28 14 11 11 24 25 24 22 38 31 26 25 19 15 17 17 17 15 14 14 15 16 18 21 22 22 21 21 22 23 25 27 29 29 30 32 33 34 33 33 34 31
28 30 29 29 18 21 18 18 19 18 35 23 17 19 18 14 13 14 17 15 14 15 16 18 19 18 18 19 21 22 24 25 27 27 26 24 25 26 26 27 29 29 28 27
31 27 25 29 20 16 23 21 28 28 23 22 21 15 15 16 18 18 17 15 15 16 16 16 16 18 20 20 22 24 27 30 29 28 27 25 24 22 22 22 23 24 26 28
32 34 33 29 33 35 22 25 26 25 22 18 14 13 17 19 20 19 17 16 15 15 15 16 18 20 21 22 25 28 30 30 28 26 23 22 22 22 23 24 25 27 30 32
33 31 34 29 31 32 32 31 27 26 19 14 14 11 15 21 21 19 17 16 16 16 17 19 21 22 23 27 29 31 31 29 24 21 21 21 22 22 24 26 28 30 32 34
33 32 35 34 32 34 33 32 31 23 19 17 16 16 19 21 21 19 19 18 18 19 20 22 24 24 28 28 32 32 30 24 21 21 21 21 22 24 25 28 30 32 35 39
33 29 31 31 27 27 24 24 21 20 20 18 17 17 20 21 21 21 21 21 21 22 24 25 28 31 29 31 31 29 23 21 21 21 22 23 25 27 29 30 32 34 38 41
Wind_Direction
237 239 242 189 199 167 179 233 351 234 253 281 284 282 278 269 193 182 165 163 156 146 151 160 164 164 161 163 164 164 167 164 162 157 166 177 182 193 209 228 242 249 255 270
198 197 160 184 195 188 199 245 290 318 279 291 275 268 252 248 261 229 176 160 159 156 156 166 172 176 175 176 175 178 182 185 183 184 187 193 210 222 230 242 258 266 264 266
194 163 171 201 211 211 220 265 306 316 303 310 257 267 252 255 242 218 214 189 189 179 166 166 169 172 176 178 185 194 198 201 201 205 216 224 237 245 257 265 262 263 258 258
209 195 191 216 223 228 228 278 311 292 257 267 137 288 256 260 261 239 211 205 194 188 188 184 179 184 171 179 197 202 210 218 222 223 233 245 255 262 270 256 257 266 265 263
199 194 208 232 219 240 241 284 293 292 232 212 219 222 269 269 288 280 244 222 203 194 189 192 192 187 188 207 214 217 221 224 229 232 234 248 258 268 275 268 262 276 273 267
205 218 232 242 232 249 238 280 270 269 220 196 207 217 261 247 320 299 265 246 229 214 214 216 216 220 223 227 230 231 230 236 248 244 243 253 262 279 284 272 266 273 271 267
224 228 240 232 228 220 231 248 253 204 176 188 202 214 251 295 314 304 290 248 247 240 233 229 232 233 235 235 239 244 247 236 244 235 238 252 269 279 289 273 265 271 270 267
215 238 237 230 232 219 233 234 212 205 201 188 200 226 263 299 310 306 280 230 241 240 232 230 234 239 246 250 254 259 260 260 294 225 248 262 270 274 278 262 261 267 267 269
200 224 217 220 212 204 208 210 223 192 207 246 232 260 302 56 337 358 263 247 252 237 237 234 227 221 235 247 246 262 252 263 273 266 276 278 274 276 268 257 262 265 270 277
219 211 221 204 205 208 217 236 197 212 177 247 259 255 280 311 345 2 61 65 215 214 223 227 225 229 224 233 243 251 249 257 264 273 280 274 267 266 264 258 263 271 273 277
222 224 214 199 208 215 234 226 226 246 245 224 247 255 258 291 311 287 354 343 348 352 272 233 225 234 214 220 226 231 237 233 243 255 269 274 281 281 276 273 279 274 273 281
219 230 232 241 246 255 251 241 242 236 240 221 241 270 281 304 277 282 308 303 318 294 310 291 255 246 231 209 216 222 218 226 240 260 277 281 285 286 284 279 276 270 277 287
215 223 225 234 235 243 247 252 257 252 246 234 220 243 240 288 280 290 295 295 298 288 264 255 174 182 202 221 228 245 249 255 258 265 273 285 287 283 280 279 279 283 288 289
221 231 235 232 240 241 250 258 253 236 229 245 250 274 271 285 278 281 265 270 279 278 252 234 231 239 227 231 236 245 246 262 270 278 280 284 287 285 278 274 280 288 288 294
219 227 237 250 251 254 245 248 256 234 250 250 280 275 278 281 285 294 275 261 265 268 265 238 238 240 240 237 239 250 261 264 268 269 272 275 275 275 279 277 281 287 284 285
230 234 244 249 250 249 242 250 250 248 257 265 273 275 279 277 274 272 272 273 258 256 252 248 243 246 250 253 258 263 268 273 277 278 280 282 281 280 280 282 282 279 284 274
232 232 232 230 241 245 242 238 247 249 258 266 272 284 283 271 265 265 268 276 277 258 249 249 246 250 254 256 261 263 270 278 281 281 284 283 283 280 279 281 281 282 286 285
226 227 227 227 216 221 251 251 249 256 265 273 281 282 278 272 268 262 263 272 266 247 245 247 250 254 259 265 275 282 284 283 282 283 284 284 281 277 278 281 285 290 291 288
230 229 223 215 220 243 246 251 258 264 280 279 270 275 279 268 259 255 250 243 235 229 237 247 256 269 281 286 286 285 286 288 289 288 287 284 281 278 277 279 279 282 286 288
225 228 228 221 225 225 252 260 263 278 274 281 263 274 266 252 239 231 219 215 217 232 252 268 278 283 285 287 289 293 295 294 293 294 293 289 284 282 281 282 284 289 296 299
216 225 226 224 234 250 246 250 261 244 280 298 284 284 248 237 222 209 206 218 235 254 271 281 286 290 292 294 296 297 297 299 304 304 302 298 291 289 294 297 298 299 303 304
224 211 218 223 229 251 251 253 258 286 284 277 282 257 240 223 215 215 226 240 257 271 282 286 292 297 299 299 301 304 307 309 309 307 306 307 309 309 307 306 306 304 304 304
223 224 225 234 238 246 254 271 277 283 285 265 267 235 228 225 222 228 241 254 270 277 282 291 300 302 302 303 304 304 307 310 310 309 308 310 310 311 309 308 308 308 308 308
233 233 236 242 249 258 266 274 272 284 266 248 218 232 223 227 230 237 248 266 274 278 289 296 303 305 300 301 302 312 313 310 306 305 306 306 307 307 307 308 309 309 308 308
239 236 239 244 253 261 269 273 273 267 245 234 229 219 217 226 231 246 263 272 278 286 291 295 299 298 296 301 306 305 302 300 302 305 305 306 306 306 307 308 309 309 310 311
238 241 239 246 270 272 281 275 264 252 238 230 225 227 221 224 237 255 266 272 278 284 287 290 291 292 294 295 294 294 294 297 300 301 301 303 304 305 306 307 309 310 311 311